Showing default

LEMUR-2-STAS-GORBUK, 66686

Orbit data source: Space-Track

LEMUR-2-STAS-GORBUK, 66686 is a payload satellite owned by Spire (US) in SSO that was launched on Fri, 28 Nov 2025 UTC via an FALCON 9 launch vehicle from the Air Force Western Test Range (AFWTR). Payload-class satellites include a variety of spacecraft equipped with specific instruments for various scientific and technological missions. These include communications satellites like Starlink; space stations such as the ISS; scientific satellites like the Hubble; Earth observation satellites from companies like Planet Labs, Umbra, and HawkEye 360; GPS; miniature CubeSats for education and research; and military/defense satellites.

Loading next visibility...
Identifier
66686, 2025-276W
Orbit
SSO
Country
Flag of USUS
Related business
Manufacturer
Spire/Glasgow
Mission
Operational Commercial Com/MetRO
Bus & Motor
CUBESAT 3U, Unknown motor
Mass
7.6 kg wet, 7.6 kg dry
Launch date (UTC)
2025-11-28 (2 months ago)
Launch vehicle
FALCON 9
Launch site
Air Force Western Test Range (AFWTR)
Object type
Payload
Rocket body
Debris
Shape & HBR
Box + 2 Pan, 0.5 m
Radar Cross Section
0.063 m²

Expand to show TLE details & history
Last TLE update: 12 hours ago

TLE from 12 hours ago
0 LEMUR-2-STAS-GORBUK
1 66686U 25276W   26034.63382754  .00007475  00000-0  37374-3 0  9997
2 66686  97.4388 110.4708 0006746 101.0980 259.1012 15.17706261 10148
Epoch: 2026-02-03T15:12Z
TLE epoch observation values (Epoch: 2026-02-03T15:12:42.699Z)
Latitude
-0.00009°
Longitude
108.48095°
Altitude
516.743 km
Speed
7.605 km/s
True Right ascension
07h 21m 52s
True Declination
0° 00' 00"
Sunlit
Object was in full shadow at epoch
Visualization orbit readout
Latitude
Unknown
Longitude
Unknown
Altitude
Unknown
Speed
Unknown
Apparent Right ascension
Unknown
Apparent Declination
Unknown
Sunlit
N/A
Visualization observer readout
Local Sidereal Time
05:35:29
Azimuth
Unknown
Elevation
Unknown
Doppler factor
Unknown
Orbital elements
Apogee altitude
514.392 km
Perigee altitude
505.099 km
Semi-major axis
6,887.882 km
Eccentricity
0.00067
Inclination
97.4388°
RAAN
110.4708°
Arg. of periapsis
101.098°
True anomaly
259.0253°
Mean anomaly
259.1012°
Eccentric anomaly
259.06325°
Mean motion
3.79677 °/min
Orbital period
94.82 mins
BSTAR
0.00037374
Loading maneuver chart data...
Computing Atmospheric mass density...
Loading historical data...
Loading historical data...
Loading historical data...
Loading historical data...
Loading historical data...
Loading historical data...
Loading historical data...

Documentation

Showing up to 5 results
|